カタログに戻る

STARLINK-36204

運用中通信VLEO
NORAD 68549·PAYLOAD·🇺🇸 United States

打ち上げ Apr 2, 2026 から Cape Canaveral Space Force Station

Loading…

次のパス (今後24時間)

TLE

最新Source: CelesTrak SupGP

元期: Sep 15, 2026, 03:13 UTC

1 68549C 26070H   26258.13451389 -.00049233  00000+0 -14547-2 0  2587
2 68549  53.1574 198.9055 0001333  86.2625 223.0687 15.34412037    14

AllMySatでSTARLINK-36204をリアルタイム追跡

Download on the App Store